Regional Weather Roundup
Issued by NWS

Home | Current Version | Previous Version | Graphics & Text | Print | Product List | Glossary On
Versions: 1 2 3 4 5 6 7 8 9 10 11 12 13 14 15 16 17 18 19 20 21 22 23 24 25 26 27 28
000
ASUS45 KBOU 201010
RWRCO

WEATHER ROUNDUP FOR COLORADO
NATIONAL WEATHER SERVICE DENVER/BOULDER CO
300 AM MST SAT JAN 20 2018

NOTE: "FAIR" INDICATES FEW OR NO CLOUDS BELOW 12000 FEET WITH NO
SIGNIFICANT WEATHER AND/OR OBSTRUCTIONS TO VISIBILITY.

COZ001>005-013-030-031-201100-
...NORTHWEST COLORADO...

CITY           SKY/WX    TMP DP  RH WIND       PRES   REMARKS
CRAIG          MOCLDY    30  23  75 SE3       29.82R
HAYDEN         CLOUDY   N/A N/A N/A CALM      29.81F
MEEKER         CLOUDY    40  25  55 NE3       29.79F
RABBIT EARS PA CLOUDY    30  19  64 SW12G21   29.89S WCI  21
STEAMBOAT SPGS MOCLDY    21  16  81 SW6       29.81F WCI  14
WALDEN         FAIR      30  16  55 S7        29.83F WCI  23
$$

COZ006>008-011-201100-
...WEST CENTRAL VALLEYS...

CITY           SKY/WX    TMP DP  RH WIND       PRES   REMARKS
GRAND JUNCTION FAIR      30  22  72 E5        29.80S WCI  25
MONTROSE       FAIR      39  20  46 VRB3      29.85S
EAGLE          FAIR      27  19  72 CALM      29.86R
RIFLE          MOCLDY    28  23  81 CALM      29.81F
DELTA          FAIR      42  24  48 W3        29.84R
NUCLA          FAIR      46  19  34 CALM      29.91F
$$

COZ017>023-064>068-201100-
...SOUTHWEST COLORADO...

CITY           SKY/WX    TMP DP  RH WIND       PRES   REMARKS
DURANGO        FAIR      23  17  78 NE3       29.98S
CORTEZ         FAIR      26  20  77 NE7       29.93F WCI  18
PAGOSA SPRINGS FAIR      26  16  67 CALM      30.02R
TELLURIDE      FAIR      39  16  38 SE6       29.97F
WOLF CREEK PAS FAIR      21  14  73 S26G35    30.06F WCI   4
$$

COZ009-010-012-014-032>034-037-058>063-201100-
...CENTRAL COLORADO...

CITY           SKY/WX    TMP DP  RH WIND       PRES   REMARKS
ASPEN          FAIR      28  17  63 S6        29.84F WCI  22
BUENA VISTA    FAIR      19  11  70 CALM      29.91S
COPPER MTN     NOT AVBL
BERTHOUD PASS  FAIR      21  10  63 W24G32    29.95R WCI   4
COTTONWOOD PAS   N/A     37  18  44 S3        29.94S
GUNNISON       CLOUDY    14  11  87 CALM      29.96S
KREMMLING      FAIR      30  21  69 CALM      29.86R
LEADVILLE      FAIR      27  12  53 CALM      29.91S
MONARCH PASS   FAIR      23  14  68 SW18      30.11S WCI   9
SALIDA         FAIR      39  14  36 W8        29.98S
SUNLIGHT       MOCLDY    28  18  64 SW16G35   29.94F WCI  17
WILKERSON PASS FAIR      28  12  50 SW15G22   29.98S WCI  17
$$

COZ069>075-201100-
...SAN LUIS VALLEY/SANGRE DE CRISTO MOUNTAINS...

CITY           SKY/WX    TMP DP  RH WIND       PRES   REMARKS
ALAMOSA        FAIR      24  13  62 SE7       29.95F WCI  16
DEL NORTE      FAIR      22  10  61 CALM      29.97F
LA VETA PASS   FAIR      32  14  47 S14G33      N/A  WCI  22
SAGUACHE       FAIR      18  10  73 N7        29.98S WCI   8
$$

COZ035-036-038>040-201100-
...NORTHERN COLORADO FRONT RANGE...

CITY           SKY/WX    TMP DP  RH WIND       PRES   REMARKS
DENVER INTL AP FAIR      45  16  31 SW10      29.74S
DMNS CITY PARK NOT AVBL
AURORA         MOCLDY    44  15  31 SW10      29.76R
FRONT RANGE AP FAIR      42  19  40 W12       29.76R
ERIE MUNI ARPT FAIR      28  18  64 NW6       29.80S WCI  22
BOULDER MUN AP FAIR      37  16  41 N5        29.74R
CENTENNIAL     FAIR      49  16  26 SW17      29.75S
BROOMFIELD     FAIR      43  12  28 W3        29.75F
FORT COLLINS   FAIR      33  21  61 VRB6      29.75R WCI  28
LONGMONT       FAIR      29  19  63 NW3       29.76S
$$

COZ041-046-047-076>085-087-088-201100-
...PIKES PEAK/PALMER DIVIDE AND SOUTHERN FOOTHILLS...

CITY           SKY/WX    TMP DP  RH WIND       PRES   REMARKS
COLO. SPRINGS  FAIR      43  13  29 NW7       29.80S
A. F. ACADEMY  FAIR      32  11  42 CALM      29.80F
SCHRIEVER AFB  FAIR      49  10  21 NW7       29.80S
CHEYENNE MTN   FAIR      49  12  22 W9        29.77S
ELLICOTT         N/A    N/A N/A N/A CALM      29.78S
FALCON         FAIR      41  10  27 W12       29.82F
FORT CARSON    FAIR      41  13  31 SE6       29.77S
LIMON          FAIR      36  16  44 W8        29.74S
MONUMENT HILL  FAIR      41  14  33 SW12      29.84S
CANON CITY     FAIR      45  19  36 W13       29.78S
WALSENBURG     FAIR      52  18  25 W13G20    29.86S
TRINIDAD       FAIR      43  19  38 W15       29.83R
$$

COZ042>045-048>051-090-091-201100-
...NORTHEAST COLORADO...

CITY           SKY/WX    TMP DP  RH WIND       PRES   REMARKS
GREELEY ARPT   FAIR      23  17  78 NW12      29.74F WCI  12
AKRON          FAIR      32  19  58 SE9       29.74R WCI  24
BURLINGTON     FAIR      25  17  72 N5        29.74S WCI  19
WRAY           FAIR      28  25  86 W5        29.74F WCI  23
YUMA           FAIR      23  16  74 CALM      29.74S
STERLING       FAIR      28  23  80 CALM      29.73S
HOLYOKE        FAIR      28  27  93 CALM      29.73F
FORT MORGAN    FAIR      28  17  63 SW3       29.74S
$$

COZ086-089-092>099-201100-
...SOUTHEAST COLORADO...

CITY           SKY/WX    TMP DP  RH WIND       PRES   REMARKS
PUEBLO         FAIR      32  17  54 CALM      29.76S
LA JUNTA       FAIR      45  20  36 SW13      29.74S
LAMAR          FAIR      28  14  55 SW3       29.72S
SPRINGFIELD      N/A     29  15  56 W3        29.75F
$$




USA.gov is the U.S. government's official web portal to all federal, state and local government web resources and services.